owner,sensor,date,latitude,longitude,vertical_datum,mass_concentration_of_oxygen_in_sea_water,qcFlag 
DISL,ioos:station:DISL:PPTA:1,2013-02-01T00:00:00Z,30.2791,-87.5561,1.001,8.2,1111122 
DISL,ioos:station:DISL:PPTA:1,2013-02-01T00:30:00Z,30.2791,-87.5561,0.995,8.34,1111122 
DISL,ioos:station:DISL:PPTA:1,2013-02-01T01:00:00Z,30.2791,-87.5561,0.994,8.61,1111122 
DISL,ioos:station:DISL:PPTA:1,2013-02-01T01:30:00Z,30.2791,-87.5561,0.994,8.04,1111122 
DISL,ioos:station:DISL:PPTA:1,2013-02-01T02:00:00Z,30.2791,-87.5561,1.006,8.29,1111122 
DISL,ioos:station:DISL:PPTA:1,2013-02-01T02:30:00Z,30.2791,-87.5561,0.993,8.18,1111122 
DISL,ioos:station:DISL:PPTA:1,2013-02-01T03:00:00Z,30.2791,-87.5561,0.986,7.9,1111122 
DISL,ioos:station:DISL:PPTA:1,2013-02-01T03:30:00Z,30.2791,-87.5561,1.008,7.95,1111122 
DISL,ioos:station:DISL:PPTA:1,2013-02-01T04:00:00Z,30.2791,-87.5561,1.019,7.83,1111122 
DISL,ioos:station:DISL:PPTA:1,2013-02-01T04:30:00Z,30.2791,-87.5561,0.997,7.77,1111122 
DISL,ioos:station:DISL:PPTA:1,2013-02-01T05:00:00Z,30.2791,-87.5561,1.001,7.6,1111122 
DISL,ioos:station:DISL:PPTA:1,2013-02-01T05:30:00Z,30.2791,-87.5561,1.006,8.02,1111122 
DISL,ioos:station:DISL:PPTA:1,2013-02-01T06:00:00Z,30.2791,-87.5561,0.994,8.03,1111122 
DISL,ioos:station:DISL:PPTA:1,2013-02-01T06:30:00Z,30.2791,-87.5561,0.977,7.85,1111122 
DISL,ioos:station:DISL:PPTA:1,2013-02-01T07:00:00Z,30.2791,-87.5561,0.995,7.82,1111122 
DISL,ioos:station:DISL:PPTA:1,2013-02-01T07:30:00Z,30.2791,-87.5561,1.003,8.26,1111122 
DISL,ioos:station:DISL:PPTA:1,2013-02-01T08:00:00Z,30.2791,-87.5561,0.99,8.1,1111122 
DISL,ioos:station:DISL:PPTA:1,2013-02-01T08:30:00Z,30.2791,-87.5561,0.98,7.9,1111122 
DISL,ioos:station:DISL:PPTA:1,2013-02-01T09:00:00Z,30.2791,-87.5561,0.984,7.8,1111122 
DISL,ioos:station:DISL:PPTA:1,2013-02-01T09:30:00Z,30.2791,-87.5561,0.959,7.76,1111122 
DISL,ioos:station:DISL:PPTA:1,2013-02-01T10:00:00Z,30.2791,-87.5561,0.928,7.59,1111122 
DISL,ioos:station:DISL:PPTA:1,2013-02-01T10:30:00Z,30.2791,-87.5561,0.936,8.13,1111122 
DISL,ioos:station:DISL:PPTA:1,2013-02-01T11:00:00Z,30.2791,-87.5561,0.96,8.06,1111122 
DISL,ioos:station:DISL:PPTA:1,2013-02-01T11:30:00Z,30.2791,-87.5561,0.958,8.08,1111122 
DISL,ioos:station:DISL:PPTA:1,2013-02-01T12:00:00Z,30.2791,-87.5561,0.954,7.0,1111122 
DISL,ioos:station:DISL:PPTA:1,2013-02-01T12:30:00Z,30.2791,-87.5561,0.961,7.69,1111122 
DISL,ioos:station:DISL:PPTA:1,2013-02-01T13:00:00Z,30.2791,-87.5561,0.964,8.02,1111122 
DISL,ioos:station:DISL:PPTA:1,2013-02-01T13:30:00Z,30.2791,-87.5561,0.94,7.8,1111122 
DISL,ioos:station:DISL:PPTA:1,2013-02-01T14:00:00Z,30.2791,-87.5561,0.961,6.8,1111122 
DISL,ioos:station:DISL:PPTA:1,2013-02-01T14:30:00Z,30.2791,-87.5561,0.955,7.55,1111122 
DISL,ioos:station:DISL:PPTA:1,2013-02-01T15:00:00Z,30.2791,-87.5561,0.954,7.55,1111122 
DISL,ioos:station:DISL:PPTA:1,2013-02-01T15:30:00Z,30.2791,-87.5561,0.964,7.89,1111122 
DISL,ioos:station:DISL:PPTA:1,2013-02-01T16:00:00Z,30.2791,-87.5561,0.981,8.06,1111122 
DISL,ioos:station:DISL:PPTA:1,2013-02-01T16:30:00Z,30.2791,-87.5561,1.006,8.05,1111122 
DISL,ioos:station:DISL:PPTA:1,2013-02-01T17:00:00Z,30.2791,-87.5561,1.016,7.81,1111122 
DISL,ioos:station:DISL:PPTA:1,2013-02-01T17:30:00Z,30.2791,-87.5561,1.016,7.04,1111122 
DISL,ioos:station:DISL:PPTA:1,2013-02-01T18:00:00Z,30.2791,-87.5561,1.022,7.11,1111122 
DISL,ioos:station:DISL:PPTA:1,2013-02-01T18:30:00Z,30.2791,-87.5561,1.03,7.72,1111122 
DISL,ioos:station:DISL:PPTA:1,2013-02-01T19:00:00Z,30.2791,-87.5561,1.04,7.67,1111122 
DISL,ioos:station:DISL:PPTA:1,2013-02-01T19:30:00Z,30.2791,-87.5561,1.041,7.69,1111122 
DISL,ioos:station:DISL:PPTA:1,2013-02-01T20:00:00Z,30.2791,-87.5561,1.036,8.02,1111122 
DISL,ioos:station:DISL:PPTA:1,2013-02-01T20:30:00Z,30.2791,-87.5561,1.04,7.96,1111122 
DISL,ioos:station:DISL:PPTA:1,2013-02-01T21:00:00Z,30.2791,-87.5561,1.029,7.77,1111122 
DISL,ioos:station:DISL:PPTA:1,2013-02-01T21:30:00Z,30.2791,-87.5561,1.014,7.89,1111122 
DISL,ioos:station:DISL:PPTA:1,2013-02-01T22:00:00Z,30.2791,-87.5561,1.03,7.91,1111122 
DISL,ioos:station:DISL:PPTA:1,2013-02-01T22:30:00Z,30.2791,-87.5561,1.023,7.82,1111122 
DISL,ioos:station:DISL:PPTA:1,2013-02-01T23:00:00Z,30.2791,-87.5561,1.018,7.73,1111122 
DISL,ioos:station:DISL:PPTA:1,2013-02-01T23:30:00Z,30.2791,-87.5561,1.005,7.64,1111122 
DISL,ioos:station:DISL:PPTA:1,2013-02-02T00:00:00Z,30.2791,-87.5561,1.0,8.17,1111122 
DISL,ioos:station:DISL:PPTA:1,2013-02-02T00:30:00Z,30.2791,-87.5561,1.0,8.46,1111122 
DISL,ioos:station:DISL:PPTA:1,2013-02-02T01:00:00Z,30.2791,-87.5561,1.002,8.48,1111122 
DISL,ioos:station:DISL:PPTA:1,2013-02-02T01:30:00Z,30.2791,-87.5561,0.998,8.34,1111122 
DISL,ioos:station:DISL:PPTA:1,2013-02-02T02:00:00Z,30.2791,-87.5561,1.0,8.19,1111122 
DISL,ioos:station:DISL:PPTA:1,2013-02-02T02:30:00Z,30.2791,-87.5561,1.0,7.35,1111122 
DISL,ioos:station:DISL:PPTA:1,2013-02-02T03:00:00Z,30.2791,-87.5561,1.003,8.12,1111122 
DISL,ioos:station:DISL:PPTA:1,2013-02-02T03:30:00Z,30.2791,-87.5561,1.008,8.23,1111122 
DISL,ioos:station:DISL:PPTA:1,2013-02-02T04:00:00Z,30.2791,-87.5561,1.002,7.79,1111122 
DISL,ioos:station:DISL:PPTA:1,2013-02-02T04:30:00Z,30.2791,-87.5561,0.999,8.11,1111122 
DISL,ioos:station:DISL:PPTA:1,2013-02-02T05:00:00Z,30.2791,-87.5561,0.989,8.24,1111122 
DISL,ioos:station:DISL:PPTA:1,2013-02-02T05:30:00Z,30.2791,-87.5561,0.987,8.05,1111122 
DISL,ioos:station:DISL:PPTA:1,2013-02-02T06:00:00Z,30.2791,-87.5561,0.981,8.05,1111122 
DISL,ioos:station:DISL:PPTA:1,2013-02-02T06:30:00Z,30.2791,-87.5561,0.979,8.1,1111122 
DISL,ioos:station:DISL:PPTA:1,2013-02-02T07:00:00Z,30.2791,-87.5561,0.984,8.0,1111122 
DISL,ioos:station:DISL:PPTA:1,2013-02-02T07:30:00Z,30.2791,-87.5561,0.992,8.3,1111122 
DISL,ioos:station:DISL:PPTA:1,2013-02-02T08:00:00Z,30.2791,-87.5561,0.988,8.4,1111122 
DISL,ioos:station:DISL:PPTA:1,2013-02-02T08:30:00Z,30.2791,-87.5561,0.968,8.06,1111122 
DISL,ioos:station:DISL:PPTA:1,2013-02-02T09:00:00Z,30.2791,-87.5561,0.974,7.89,1111122 
DISL,ioos:station:DISL:PPTA:1,2013-02-02T09:30:00Z,30.2791,-87.5561,0.972,8.14,1111122 
DISL,ioos:station:DISL:PPTA:1,2013-02-02T10:00:00Z,30.2791,-87.5561,0.968,7.56,1111122 
DISL,ioos:station:DISL:PPTA:1,2013-02-02T10:30:00Z,30.2791,-87.5561,0.975,7.55,1111122 
DISL,ioos:station:DISL:PPTA:1,2013-02-02T11:00:00Z,30.2791,-87.5561,0.981,8.06,1111122 
DISL,ioos:station:DISL:PPTA:1,2013-02-02T11:30:00Z,30.2791,-87.5561,0.973,7.29,1111122 
DISL,ioos:station:DISL:PPTA:1,2013-02-02T12:00:00Z,30.2791,-87.5561,0.987,6.61,1111122 
DISL,ioos:station:DISL:PPTA:1,2013-02-02T12:30:00Z,30.2791,-87.5561,1.006,7.14,1111122 
DISL,ioos:station:DISL:PPTA:1,2013-02-02T13:00:00Z,30.2791,-87.5561,1.012,5.95,1111122 
DISL,ioos:station:DISL:PPTA:1,2013-02-02T13:30:00Z,30.2791,-87.5561,1.015,6.37,1111122 
DISL,ioos:station:DISL:PPTA:1,2013-02-02T14:00:00Z,30.2791,-87.5561,1.018,6.67,1111122 
DISL,ioos:station:DISL:PPTA:1,2013-02-02T14:30:00Z,30.2791,-87.5561,1.028,6.83,1111122 
DISL,ioos:station:DISL:PPTA:1,2013-02-02T15:00:00Z,30.2791,-87.5561,1.046,6.84,1111122 
DISL,ioos:station:DISL:PPTA:1,2013-02-02T15:30:00Z,30.2791,-87.5561,1.061,7.04,1111122 
DISL,ioos:station:DISL:PPTA:1,2013-02-02T16:00:00Z,30.2791,-87.5561,1.084,7.2,1111122 
DISL,ioos:station:DISL:PPTA:1,2013-02-02T16:30:00Z,30.2791,-87.5561,1.104,7.31,1111122 
DISL,ioos:station:DISL:PPTA:1,2013-02-02T17:00:00Z,30.2791,-87.5561,1.119,7.55,1111122 
DISL,ioos:station:DISL:PPTA:1,2013-02-02T17:30:00Z,30.2791,-87.5561,1.127,7.52,1111122 
DISL,ioos:station:DISL:PPTA:1,2013-02-02T18:00:00Z,30.2791,-87.5561,1.125,7.35,1111122 
DISL,ioos:station:DISL:PPTA:1,2013-02-02T18:30:00Z,30.2791,-87.5561,1.148,7.41,1111122 
DISL,ioos:station:DISL:PPTA:1,2013-02-02T19:00:00Z,30.2791,-87.5561,1.164,7.74,1111122 
DISL,ioos:station:DISL:PPTA:1,2013-02-02T19:30:00Z,30.2791,-87.5561,1.174,7.47,1111122 
DISL,ioos:station:DISL:PPTA:1,2013-02-02T20:00:00Z,30.2791,-87.5561,1.179,7.58,1111122 
DISL,ioos:station:DISL:PPTA:1,2013-02-02T20:30:00Z,30.2791,-87.5561,1.182,7.66,1111122 
DISL,ioos:station:DISL:PPTA:1,2013-02-02T21:00:00Z,30.2791,-87.5561,1.189,7.97,1111122 
DISL,ioos:station:DISL:PPTA:1,2013-02-02T21:30:00Z,30.2791,-87.5561,1.188,7.73,1111122 
DISL,ioos:station:DISL:PPTA:1,2013-02-02T22:00:00Z,30.2791,-87.5561,1.19,7.72,1111122 
DISL,ioos:station:DISL:PPTA:1,2013-02-02T22:30:00Z,30.2791,-87.5561,1.182,8.13,1111122 
DISL,ioos:station:DISL:PPTA:1,2013-02-02T23:00:00Z,30.2791,-87.5561,1.176,7.68,1111122 
DISL,ioos:station:DISL:PPTA:1,2013-02-02T23:30:00Z,30.2791,-87.5561,1.167,7.95,1111122 
DISL,ioos:station:DISL:PPTA:1,2013-02-03T00:00:00Z,30.2791,-87.5561,1.147,8.08,1111122 
DISL,ioos:station:DISL:PPTA:1,2013-02-03T00:30:00Z,30.2791,-87.5561,1.137,7.8,1111122 
DISL,ioos:station:DISL:PPTA:1,2013-02-03T01:00:00Z,30.2791,-87.5561,1.14,7.9,1111122 
DISL,ioos:station:DISL:PPTA:1,2013-02-03T01:30:00Z,30.2791,-87.5561,1.133,8.09,1111122 
DISL,ioos:station:DISL:PPTA:1,2013-02-03T02:00:00Z,30.2791,-87.5561,1.119,7.9,1111122 
DISL,ioos:station:DISL:PPTA:1,2013-02-03T02:30:00Z,30.2791,-87.5561,1.104,7.9,1111122 
DISL,ioos:station:DISL:PPTA:1,2013-02-03T03:00:00Z,30.2791,-87.5561,1.086,7.93,1111122 
DISL,ioos:station:DISL:PPTA:1,2013-02-03T03:30:00Z,30.2791,-87.5561,1.082,7.68,1111122 
DISL,ioos:station:DISL:PPTA:1,2013-02-03T04:00:00Z,30.2791,-87.5561,1.058,7.77,1111122 
DISL,ioos:station:DISL:PPTA:1,2013-02-03T04:30:00Z,30.2791,-87.5561,1.054,7.9,1111122 
DISL,ioos:station:DISL:PPTA:1,2013-02-03T05:00:00Z,30.2791,-87.5561,1.04,7.85,1111122 
DISL,ioos:station:DISL:PPTA:1,2013-02-03T05:30:00Z,30.2791,-87.5561,1.026,8.03,1111122 
DISL,ioos:station:DISL:PPTA:1,2013-02-03T06:00:00Z,30.2791,-87.5561,1.02,8.05,1111122 
DISL,ioos:station:DISL:PPTA:1,2013-02-03T06:30:00Z,30.2791,-87.5561,1.007,8.13,1111122 
DISL,ioos:station:DISL:PPTA:1,2013-02-03T07:00:00Z,30.2791,-87.5561,0.998,7.93,1111122 
DISL,ioos:station:DISL:PPTA:1,2013-02-03T07:30:00Z,30.2791,-87.5561,0.981,7.84,1111122 
DISL,ioos:station:DISL:PPTA:1,2013-02-03T08:00:00Z,30.2791,-87.5561,0.98,7.96,1111122 
DISL,ioos:station:DISL:PPTA:1,2013-02-03T08:30:00Z,30.2791,-87.5561,0.985,8.15,1111122 
DISL,ioos:station:DISL:PPTA:1,2013-02-03T09:00:00Z,30.2791,-87.5561,0.976,7.88,1111122 
DISL,ioos:station:DISL:PPTA:1,2013-02-03T09:30:00Z,30.2791,-87.5561,0.979,8.1,1111122 
DISL,ioos:station:DISL:PPTA:1,2013-02-03T10:00:00Z,30.2791,-87.5561,0.976,8.09,1111122 
DISL,ioos:station:DISL:PPTA:1,2013-02-03T10:30:00Z,30.2791,-87.5561,0.963,8.04,1111122 
DISL,ioos:station:DISL:PPTA:1,2013-02-03T11:00:00Z,30.2791,-87.5561,0.962,7.48,1111122 
DISL,ioos:station:DISL:PPTA:1,2013-02-03T11:30:00Z,30.2791,-87.5561,0.983,8.08,1111122 
DISL,ioos:station:DISL:PPTA:1,2013-02-03T12:00:00Z,30.2791,-87.5561,0.988,8.39,1111122 
DISL,ioos:station:DISL:PPTA:1,2013-02-03T12:30:00Z,30.2791,-87.5561,1.007,7.61,1111122 
DISL,ioos:station:DISL:PPTA:1,2013-02-03T13:00:00Z,30.2791,-87.5561,1.013,7.92,1111122 
DISL,ioos:station:DISL:PPTA:1,2013-02-03T13:30:00Z,30.2791,-87.5561,1.007,8.05,1111122 
DISL,ioos:station:DISL:PPTA:1,2013-02-03T14:00:00Z,30.2791,-87.5561,1.032,7.92,1111122 
DISL,ioos:station:DISL:PPTA:1,2013-02-03T14:30:00Z,30.2791,-87.5561,1.037,7.57,1111122 
DISL,ioos:station:DISL:PPTA:1,2013-02-03T15:00:00Z,30.2791,-87.5561,1.041,6.77,1111122 
DISL,ioos:station:DISL:PPTA:1,2013-02-03T15:30:00Z,30.2791,-87.5561,1.071,7.18,1111122 
DISL,ioos:station:DISL:PPTA:1,2013-02-03T16:00:00Z,30.2791,-87.5561,1.081,7.39,1111122 
DISL,ioos:station:DISL:PPTA:1,2013-02-03T16:30:00Z,30.2791,-87.5561,1.095,7.61,1111122 
DISL,ioos:station:DISL:PPTA:1,2013-02-03T17:00:00Z,30.2791,-87.5561,1.099,7.59,1111122 
DISL,ioos:station:DISL:PPTA:1,2013-02-03T17:30:00Z,30.2791,-87.5561,1.127,7.78,1111122 
DISL,ioos:station:DISL:PPTA:1,2013-02-03T18:00:00Z,30.2791,-87.5561,1.143,7.69,1111122 
DISL,ioos:station:DISL:PPTA:1,2013-02-03T18:30:00Z,30.2791,-87.5561,1.141,7.52,1111122 
DISL,ioos:station:DISL:PPTA:1,2013-02-03T19:00:00Z,30.2791,-87.5561,1.16,7.58,1111122 
DISL,ioos:station:DISL:PPTA:1,2013-02-03T19:30:00Z,30.2791,-87.5561,1.172,7.7,1111122 
DISL,ioos:station:DISL:PPTA:1,2013-02-03T20:00:00Z,30.2791,-87.5561,1.168,7.67,1111122 
DISL,ioos:station:DISL:PPTA:1,2013-02-03T20:30:00Z,30.2791,-87.5561,1.176,7.59,1111122 
DISL,ioos:station:DISL:PPTA:1,2013-02-03T21:00:00Z,30.2791,-87.5561,1.182,7.81,1111122 
DISL,ioos:station:DISL:PPTA:1,2013-02-03T21:30:00Z,30.2791,-87.5561,1.17,7.71,1111122 
DISL,ioos:station:DISL:PPTA:1,2013-02-03T22:00:00Z,30.2791,-87.5561,1.175,7.67,1111122 
DISL,ioos:station:DISL:PPTA:1,2013-02-03T22:30:00Z,30.2791,-87.5561,1.179,7.54,1111122 
DISL,ioos:station:DISL:PPTA:1,2013-02-03T23:00:00Z,30.2791,-87.5561,1.166,7.55,1111122 
DISL,ioos:station:DISL:PPTA:1,2013-02-03T23:30:00Z,30.2791,-87.5561,1.16,7.59,1111122 
DISL,ioos:station:DISL:PPTA:1,2013-02-04T00:00:00Z,30.2791,-87.5561,1.156,7.65,1111122 
DISL,ioos:station:DISL:PPTA:1,2013-02-04T00:30:00Z,30.2791,-87.5561,1.133,7.65,1111122 
DISL,ioos:station:DISL:PPTA:1,2013-02-04T01:00:00Z,30.2791,-87.5561,1.121,7.5,1111122 
DISL,ioos:station:DISL:PPTA:1,2013-02-04T01:30:00Z,30.2791,-87.5561,1.106,8.09,1111122 
DISL,ioos:station:DISL:PPTA:1,2013-02-04T02:00:00Z,30.2791,-87.5561,1.093,7.86,1111122 
DISL,ioos:station:DISL:PPTA:1,2013-02-04T02:30:00Z,30.2791,-87.5561,1.081,7.84,1111122 
DISL,ioos:station:DISL:PPTA:1,2013-02-04T03:00:00Z,30.2791,-87.5561,1.058,7.87,1111122 
DISL,ioos:station:DISL:PPTA:1,2013-02-04T03:30:00Z,30.2791,-87.5561,1.063,7.59,1111122 
DISL,ioos:station:DISL:PPTA:1,2013-02-04T04:00:00Z,30.2791,-87.5561,1.042,7.92,1111122 
DISL,ioos:station:DISL:PPTA:1,2013-02-04T04:30:00Z,30.2791,-87.5561,1.011,7.8,1111122 
DISL,ioos:station:DISL:PPTA:1,2013-02-04T05:00:00Z,30.2791,-87.5561,1.007,7.81,1111122 
DISL,ioos:station:DISL:PPTA:1,2013-02-04T05:30:00Z,30.2791,-87.5561,0.994,8.19,1111122 
DISL,ioos:station:DISL:PPTA:1,2013-02-04T06:00:00Z,30.2791,-87.5561,0.993,8.28,1111122 
DISL,ioos:station:DISL:PPTA:1,2013-02-04T06:30:00Z,30.2791,-87.5561,0.979,8.29,1111122 
DISL,ioos:station:DISL:PPTA:1,2013-02-04T07:00:00Z,30.2791,-87.5561,0.979,8.08,1111122 
DISL,ioos:station:DISL:PPTA:1,2013-02-04T07:30:00Z,30.2791,-87.5561,0.97,7.73,1111122 
DISL,ioos:station:DISL:PPTA:1,2013-02-04T08:00:00Z,30.2791,-87.5561,0.953,7.8,1111122 
DISL,ioos:station:DISL:PPTA:1,2013-02-04T08:30:00Z,30.2791,-87.5561,0.948,7.95,1111122 
DISL,ioos:station:DISL:PPTA:1,2013-02-04T09:00:00Z,30.2791,-87.5561,0.951,8.02,1111122 
DISL,ioos:station:DISL:PPTA:1,2013-02-04T09:30:00Z,30.2791,-87.5561,0.949,8.15,1111122 
DISL,ioos:station:DISL:PPTA:1,2013-02-04T10:00:00Z,30.2791,-87.5561,0.961,8.04,1111122 
DISL,ioos:station:DISL:PPTA:1,2013-02-04T10:30:00Z,30.2791,-87.5561,0.971,7.64,1111122 
DISL,ioos:station:DISL:PPTA:1,2013-02-04T11:00:00Z,30.2791,-87.5561,0.992,7.7,1111122 
DISL,ioos:station:DISL:PPTA:1,2013-02-04T11:30:00Z,30.2791,-87.5561,1.005,8.13,1111122 
DISL,ioos:station:DISL:PPTA:1,2013-02-04T12:00:00Z,30.2791,-87.5561,1.011,7.91,1111122 
DISL,ioos:station:DISL:PPTA:1,2013-02-04T12:30:00Z,30.2791,-87.5561,1.022,7.68,1111122 
DISL,ioos:station:DISL:PPTA:1,2013-02-04T13:00:00Z,30.2791,-87.5561,1.012,7.44,1111122 
DISL,ioos:station:DISL:PPTA:1,2013-02-04T13:30:00Z,30.2791,-87.5561,1.03,7.66,1111122 
DISL,ioos:station:DISL:PPTA:1,2013-02-04T14:00:00Z,30.2791,-87.5561,1.033,7.32,1111122 
DISL,ioos:station:DISL:PPTA:1,2013-02-04T14:30:00Z,30.2791,-87.5561,1.047,6.64,1111122 
DISL,ioos:station:DISL:PPTA:1,2013-02-04T15:00:00Z,30.2791,-87.5561,1.073,6.81,1111122 
DISL,ioos:station:DISL:PPTA:1,2013-02-04T15:30:00Z,30.2791,-87.5561,1.078,7.63,1111122 
DISL,ioos:station:DISL:PPTA:1,2013-02-04T16:00:00Z,30.2791,-87.5561,1.095,7.58,1111122 
DISL,ioos:station:DISL:PPTA:1,2013-02-04T16:30:00Z,30.2791,-87.5561,1.116,7.72,1111122 
DISL,ioos:station:DISL:PPTA:1,2013-02-04T17:00:00Z,30.2791,-87.5561,1.133,7.65,1111122 
DISL,ioos:station:DISL:PPTA:1,2013-02-04T17:30:00Z,30.2791,-87.5561,1.161,7.98,1111122 
DISL,ioos:station:DISL:PPTA:1,2013-02-04T18:00:00Z,30.2791,-87.5561,1.167,8.02,1111122 
DISL,ioos:station:DISL:PPTA:1,2013-02-04T18:30:00Z,30.2791,-87.5561,1.188,8.09,1111122 
DISL,ioos:station:DISL:PPTA:1,2013-02-04T19:00:00Z,30.2791,-87.5561,1.208,7.94,1111122 
DISL,ioos:station:DISL:PPTA:1,2013-02-04T19:30:00Z,30.2791,-87.5561,1.211,7.97,1111122 
DISL,ioos:station:DISL:PPTA:1,2013-02-04T20:00:00Z,30.2791,-87.5561,1.233,7.92,1111122 
DISL,ioos:station:DISL:PPTA:1,2013-02-04T20:30:00Z,30.2791,-87.5561,1.242,7.94,1111122 
DISL,ioos:station:DISL:PPTA:1,2013-02-04T21:00:00Z,30.2791,-87.5561,1.261,8.02,1111122 
DISL,ioos:station:DISL:PPTA:1,2013-02-04T21:30:00Z,30.2791,-87.5561,1.272,7.97,1111122 
DISL,ioos:station:DISL:PPTA:1,2013-02-04T22:00:00Z,30.2791,-87.5561,1.269,7.85,1111122 
DISL,ioos:station:DISL:PPTA:1,2013-02-04T22:30:00Z,30.2791,-87.5561,1.282,7.92,1111122 
DISL,ioos:station:DISL:PPTA:1,2013-02-04T23:00:00Z,30.2791,-87.5561,1.288,7.86,1111122 
DISL,ioos:station:DISL:PPTA:1,2013-02-04T23:30:00Z,30.2791,-87.5561,1.295,7.8,1111122 
DISL,ioos:station:DISL:PPTA:1,2013-02-05T00:00:00Z,30.2791,-87.5561,1.283,7.71,1111122 
DISL,ioos:station:DISL:PPTA:1,2013-02-05T00:30:00Z,30.2791,-87.5561,1.289,7.56,1111122 
DISL,ioos:station:DISL:PPTA:1,2013-02-05T01:00:00Z,30.2791,-87.5561,1.299,7.6,1111122 
DISL,ioos:station:DISL:PPTA:1,2013-02-05T01:30:00Z,30.2791,-87.5561,1.276,7.75,1111122 
DISL,ioos:station:DISL:PPTA:1,2013-02-05T02:00:00Z,30.2791,-87.5561,1.246,7.5,1111122 
DISL,ioos:station:DISL:PPTA:1,2013-02-05T02:30:00Z,30.2791,-87.5561,1.217,7.81,1111122 
DISL,ioos:station:DISL:PPTA:1,2013-02-05T03:00:00Z,30.2791,-87.5561,1.21,7.56,1111122 
DISL,ioos:station:DISL:PPTA:1,2013-02-05T03:30:00Z,30.2791,-87.5561,1.214,7.88,1111122 
DISL,ioos:station:DISL:PPTA:1,2013-02-05T04:00:00Z,30.2791,-87.5561,1.204,7.68,1111122 
DISL,ioos:station:DISL:PPTA:1,2013-02-05T04:30:00Z,30.2791,-87.5561,1.177,7.53,1111122 
DISL,ioos:station:DISL:PPTA:1,2013-02-05T05:00:00Z,30.2791,-87.5561,1.147,7.55,1111122 
DISL,ioos:station:DISL:PPTA:1,2013-02-05T05:30:00Z,30.2791,-87.5561,1.14,7.59,1111122 
DISL,ioos:station:DISL:PPTA:1,2013-02-05T06:00:00Z,30.2791,-87.5561,1.144,7.81,1111122 
DISL,ioos:station:DISL:PPTA:1,2013-02-05T06:30:00Z,30.2791,-87.5561,1.123,7.98,1111122 
DISL,ioos:station:DISL:PPTA:1,2013-02-05T07:00:00Z,30.2791,-87.5561,1.109,8.13,1111122 
DISL,ioos:station:DISL:PPTA:1,2013-02-05T07:30:00Z,30.2791,-87.5561,1.091,8.03,1111122 
DISL,ioos:station:DISL:PPTA:1,2013-02-05T08:00:00Z,30.2791,-87.5561,1.097,8.07,1111122 
DISL,ioos:station:DISL:PPTA:1,2013-02-05T08:30:00Z,30.2791,-87.5561,1.065,7.94,1111122 
DISL,ioos:station:DISL:PPTA:1,2013-02-05T09:00:00Z,30.2791,-87.5561,1.031,7.99,1111122 
DISL,ioos:station:DISL:PPTA:1,2013-02-05T09:30:00Z,30.2791,-87.5561,1.043,7.98,1111122 
DISL,ioos:station:DISL:PPTA:1,2013-02-05T10:00:00Z,30.2791,-87.5561,1.034,8.04,1111122 
DISL,ioos:station:DISL:PPTA:1,2013-02-05T10:30:00Z,30.2791,-87.5561,1.085,7.69,1111122 
DISL,ioos:station:DISL:PPTA:1,2013-02-05T11:00:00Z,30.2791,-87.5561,1.102,8.04,1111122 
DISL,ioos:station:DISL:PPTA:1,2013-02-05T11:30:00Z,30.2791,-87.5561,1.086,8.09,1111122 
DISL,ioos:station:DISL:PPTA:1,2013-02-05T12:00:00Z,30.2791,-87.5561,1.104,8.19,1111122 
DISL,ioos:station:DISL:PPTA:1,2013-02-05T12:30:00Z,30.2791,-87.5561,1.118,8.23,1111122 
DISL,ioos:station:DISL:PPTA:1,2013-02-05T13:00:00Z,30.2791,-87.5561,1.109,7.63,1111122 
DISL,ioos:station:DISL:PPTA:1,2013-02-05T13:30:00Z,30.2791,-87.5561,1.148,8.07,1111122 
DISL,ioos:station:DISL:PPTA:1,2013-02-05T14:00:00Z,30.2791,-87.5561,1.17,7.58,1111122 
DISL,ioos:station:DISL:PPTA:1,2013-02-05T14:30:00Z,30.2791,-87.5561,1.188,7.97,1111122 
DISL,ioos:station:DISL:PPTA:1,2013-02-05T15:00:00Z,30.2791,-87.5561,1.178,6.98,1111122 
DISL,ioos:station:DISL:PPTA:1,2013-02-05T15:30:00Z,30.2791,-87.5561,1.172,6.71,1111122 
DISL,ioos:station:DISL:PPTA:1,2013-02-05T16:00:00Z,30.2791,-87.5561,1.196,7.79,1111122 
DISL,ioos:station:DISL:PPTA:1,2013-02-05T16:30:00Z,30.2791,-87.5561,1.202,7.9,1111122 
DISL,ioos:station:DISL:PPTA:1,2013-02-05T17:00:00Z,30.2791,-87.5561,1.232,7.68,1111122 
DISL,ioos:station:DISL:PPTA:1,2013-02-05T17:30:00Z,30.2791,-87.5561,1.269,7.87,1111122 
DISL,ioos:station:DISL:PPTA:1,2013-02-05T18:00:00Z,30.2791,-87.5561,1.278,7.91,1111122 
DISL,ioos:station:DISL:PPTA:1,2013-02-05T18:30:00Z,30.2791,-87.5561,1.306,7.72,1111122 
DISL,ioos:station:DISL:PPTA:1,2013-02-05T19:00:00Z,30.2791,-87.5561,1.32,7.74,1111122 
DISL,ioos:station:DISL:PPTA:1,2013-02-05T19:30:00Z,30.2791,-87.5561,1.347,7.59,1111122 
DISL,ioos:station:DISL:PPTA:1,2013-02-05T20:00:00Z,30.2791,-87.5561,1.372,7.67,1111122 
DISL,ioos:station:DISL:PPTA:1,2013-02-05T20:30:00Z,30.2791,-87.5561,1.376,7.66,1111122 
DISL,ioos:station:DISL:PPTA:1,2013-02-05T21:00:00Z,30.2791,-87.5561,1.403,7.71,1111122 
DISL,ioos:station:DISL:PPTA:1,2013-02-05T21:30:00Z,30.2791,-87.5561,1.406,7.8,1111122 
DISL,ioos:station:DISL:PPTA:1,2013-02-05T22:00:00Z,30.2791,-87.5561,1.406,7.85,1111122 
DISL,ioos:station:DISL:PPTA:1,2013-02-05T22:30:00Z,30.2791,-87.5561,1.418,7.82,1111122 
DISL,ioos:station:DISL:PPTA:1,2013-02-05T23:00:00Z,30.2791,-87.5561,1.422,7.68,1111122 
DISL,ioos:station:DISL:PPTA:1,2013-02-05T23:30:00Z,30.2791,-87.5561,1.429,7.65,1111122 
DISL,ioos:station:DISL:PPTA:1,2013-02-06T00:00:00Z,30.2791,-87.5561,1.465,7.67,1111122 
DISL,ioos:station:DISL:PPTA:1,2013-02-06T00:30:00Z,30.2791,-87.5561,1.425,7.59,1111122 
DISL,ioos:station:DISL:PPTA:1,2013-02-06T01:00:00Z,30.2791,-87.5561,1.441,7.42,1111122 
DISL,ioos:station:DISL:PPTA:1,2013-02-06T01:30:00Z,30.2791,-87.5561,1.432,7.62,1111122 
DISL,ioos:station:DISL:PPTA:1,2013-02-06T02:00:00Z,30.2791,-87.5561,1.417,7.49,1111122 
DISL,ioos:station:DISL:PPTA:1,2013-02-06T02:30:00Z,30.2791,-87.5561,1.403,7.59,1111122 
DISL,ioos:station:DISL:PPTA:1,2013-02-06T03:00:00Z,30.2791,-87.5561,1.353,7.52,1111122 
DISL,ioos:station:DISL:PPTA:1,2013-02-06T03:30:00Z,30.2791,-87.5561,1.354,7.89,1111122 
DISL,ioos:station:DISL:PPTA:1,2013-02-06T04:00:00Z,30.2791,-87.5561,1.324,8.19,1111122 
DISL,ioos:station:DISL:PPTA:1,2013-02-06T04:30:00Z,30.2791,-87.5561,1.316,7.7,1111122 
DISL,ioos:station:DISL:PPTA:1,2013-02-06T05:00:00Z,30.2791,-87.5561,1.307,7.66,1111122 
DISL,ioos:station:DISL:PPTA:1,2013-02-06T05:30:00Z,30.2791,-87.5561,1.275,7.64,1111122 
DISL,ioos:station:DISL:PPTA:1,2013-02-06T06:00:00Z,30.2791,-87.5561,1.257,7.59,1111122 
DISL,ioos:station:DISL:PPTA:1,2013-02-06T06:30:00Z,30.2791,-87.5561,1.245,7.7,1111122 
DISL,ioos:station:DISL:PPTA:1,2013-02-06T07:00:00Z,30.2791,-87.5561,1.225,7.66,1111122 
DISL,ioos:station:DISL:PPTA:1,2013-02-06T07:30:00Z,30.2791,-87.5561,1.212,7.75,1111122 
DISL,ioos:station:DISL:PPTA:1,2013-02-06T08:00:00Z,30.2791,-87.5561,1.196,7.76,1111122 
DISL,ioos:station:DISL:PPTA:1,2013-02-06T08:30:00Z,30.2791,-87.5561,1.188,8.04,1111122 
DISL,ioos:station:DISL:PPTA:1,2013-02-06T09:00:00Z,30.2791,-87.5561,1.174,8.06,1111122 
DISL,ioos:station:DISL:PPTA:1,2013-02-06T09:30:00Z,30.2791,-87.5561,1.151,8.0,1111122 
DISL,ioos:station:DISL:PPTA:1,2013-02-06T10:00:00Z,30.2791,-87.5561,1.14,7.85,1111122 
DISL,ioos:station:DISL:PPTA:1,2013-02-06T10:30:00Z,30.2791,-87.5561,1.134,7.88,1111122 
DISL,ioos:station:DISL:PPTA:1,2013-02-06T11:00:00Z,30.2791,-87.5561,1.137,7.95,1111122 
DISL,ioos:station:DISL:PPTA:1,2013-02-06T11:30:00Z,30.2791,-87.5561,1.142,8.08,1111122 
DISL,ioos:station:DISL:PPTA:1,2013-02-06T12:00:00Z,30.2791,-87.5561,1.136,7.76,1111122 
DISL,ioos:station:DISL:PPTA:1,2013-02-06T12:30:00Z,30.2791,-87.5561,1.134,7.74,1111122 
DISL,ioos:station:DISL:PPTA:1,2013-02-06T13:00:00Z,30.2791,-87.5561,1.166,8.11,1111122 
DISL,ioos:station:DISL:PPTA:1,2013-02-06T13:30:00Z,30.2791,-87.5561,1.16,7.67,1111122 
DISL,ioos:station:DISL:PPTA:1,2013-02-06T14:00:00Z,30.2791,-87.5561,1.194,8.4,1111122 
DISL,ioos:station:DISL:PPTA:1,2013-02-06T14:30:00Z,30.2791,-87.5561,1.182,7.4,1111122 
DISL,ioos:station:DISL:PPTA:1,2013-02-06T15:00:00Z,30.2791,-87.5561,1.17,7.44,1111122 
DISL,ioos:station:DISL:PPTA:1,2013-02-06T15:30:00Z,30.2791,-87.5561,1.196,7.9,1111122 